Location: Atbuku
(36.4936°N, 30.4362°E)
Time: 05:13:00
(UTC+00:00)

USA 81 - Pass Details

Date: 11 December 2025
Orbit: 783 x 785 km, 85.0° (Epoch: 13 January)

Event Time Altitude Azimuth Distance (km) Brightness Sun altitude
Rises 15:49:30 0° 4° (N) 3,281 7.0 -13.1°
Reaches altitude 10° 15:52:00 10° 11° (N) 2,348 6.2 -13.5°
Maximum altitude 15:56:59 42° 82° (E) 1,103 4.4 -14.5°
Drops below altitude 10° 16:01:56 10° 153° (SSE) 2,332 6.4 -15.4°
Sets 16:04:24 0° 160° (SSE) 3,255 7.2 -15.9°
